Regional Weather Roundup
Issued by NWS

Home | Current Version | Previous Version | Text Only | Print | Product List | Glossary On
Versions: 1 2 3 4 5 6 7 8 9 10 11 12 13 14 15 16 17 18 19 20 21 22 23 24 25 26 27 28 29 30 31 32 33 34 35 36 37 38 39 40 41 42 43 44 45 46 47 48 49 50
000
ASUS45 KTFX 062219
RWRMT
MONTANA HOURLY WEATHER ROUNDUP
NATIONAL WEATHER SERVICE GREAT FALLS MT
319 PM MST FRI MAR 6 2015

NOTE: "FAIR" INDICATES FEW OR NO CLOUDS BELOW 12000 FEET WITH NO
SIGNIFICANT WEATHER AND/OR OBSTRUCTIONS TO VISIBILITY.

* THESE STATIONS ARE NOT UNDER NWS QUALITY CONTROL. THEY DO NOT
   REPORT WEATHER SUCH AS PRECIPITATION OR FOG.

MTZ001>007-043-062300-
WEST OF THE DIVIDE
CITY           SKY/WX    TMP DP  RH WIND       PRES   REMARKS
KALISPELL      PTCLDY    52  23  32 S8        30.27F
MISSOULA       SUNNY     57  19  23 VRB5      30.30F
BUTTE          PTCLDY    52  19  27 W16G26    30.29F
MULLAN PASS    PTCLDY    46  19  34 VRB5      30.34S
* ESSEX        N/A       50  20  31 E3         N/A
* EUREKA APT   PTCLDY    61  23  23 S10G16    30.24F
* HAMILTON APT PTCLDY    63  16  16 NE6       30.31F
* LIBBY APT    PTCLDY    59  23  25 CALM      30.27F
* LINCOLN      N/A       54  18  24 S8G20      N/A
* LOOKOUT PASS N/A       51  21  31 VRB2G11    N/A
* POLSON       N/A       58  24  27 S4G9       N/A
* RONAN APT    PTCLDY    59  25  27 SE9        N/A
* SEELEY LAKE  N/A       56  20  24 NW5G12     N/A
* THOMP F APT  PTCLDY    45  18  34 SW6G13     N/A
$$

MTZ008-052>055-062300-
SOUTHWEST MONTANA
CITY           SKY/WX    TMP DP  RH WIND       PRES   REMARKS
BOZEMAN        PTCLDY    57  19  23 W17       30.24F
DILLON         PTCLDY    57  16  20 NE7       30.29F
* W YELLOWSTON PTCLDY    44  19  37 SW6G15     N/A
* THREE FORKS  PTSUNNY   61  19  20 SW7        N/A
* BOULDER HILL N/A       49  14  24 N9G16      N/A
* MONIDA PASS  N/A       47  16  29 NW20G27    N/A
* RAYNOLDS PAS N/A       35  20  54 S8         N/A   WCI  28
* WHITEHALL    N/A       54  17  23 W13G23     N/A
* WISE RIVER   N/A       52  15  23 W16G25     N/A
$$

MTZ009>010-012-014-046-048-049-054-062300-
EAST SLOPES AND CENTRAL MONTANA
CITY           SKY/WX    TMP DP  RH WIND       PRES   REMARKS
CUT BANK       CLOUDY    52  19  27 W26G35    30.14R
GREAT FALLS    PTCLDY    59  18  20 W17G28    30.15S
HELENA         PTSUNNY   55  19  24 NW9       30.22F
* CONRAD       PTSUNNY   57  19  23 W24G31     N/A
* DEARBORN     N/A       55  20  25 S10G16     N/A
* EAST GLACIER N/A       46  21  37 NW11G21    N/A
* MONARCH      N/A       44  15  31 W24G30     N/A
* PENDROY      N/A       52  25  35 NW19G26    N/A
* ROGERS PASS  N/A       47  18  31 SE9G27     N/A
* SWEET GRASS  N/A       49  22  35 NW22G36    N/A
* WHITE SULPH  N/A       53  19  26 W17G30     N/A
$$

MTZ011-013-016-021-035-040-045-047-050-051-062300-
NORTH CENTRAL MONTANA
CITY           SKY/WX    TMP DP  RH WIND       PRES   REMARKS
HAVRE          PTCLDY    59  21  23 NW21      30.08R
LEWISTOWN      PTCLDY    54  27  35 W18G26    30.13S
* N BAR RANCH  SUNNY     52  21  30 NW23      30.12S
* CHINOOK      SUNNY     57  25  29 NW20G28   30.07R
* FORT BENTON  PTSUNNY   57  18  22 W21G30    30.13R
* CHESTER      N/A       54  22  29 NW21G31    N/A
* DENTON       N/A       55  21  27 W23G33     N/A
* GEYSER       N/A       54  20  26 W27G34     N/A
* JUDITH GAP   N/A       50  23  35 NW20G28    N/A
* LOMA         N/A       57  21  25 W21G31     N/A
$$

MTZ017>020-022>027-061-062-062300-
NORTHEAST MONTANA
CITY           SKY/WX    TMP DP  RH WIND       PRES   REMARKS
GLASGOW        PTCLDY    55  25  31 NW21G30   30.01R
GLENDIVE       PTCLDY    55  25  31 W21G31    30.02S
JORDAN         SUNNY     57  21  25 W22G30    30.03F
SIDNEY         PTCLDY    52  28  40 W15G20    30.02R
WOLF POINT     PTCLDY    55  28  35 NW21      30.01R
* BEAVER HILL  N/A       52  22  31 W23G31     N/A
* CIRCLE       N/A       56  29  36 NW14       N/A
* LINDSAY DVD  N/A       52  23  32 W16G29     N/A
* NAVAJO       N/A       45  31  58 NW22G28    N/A
* PLENTYWOOD A PTSUNNY   45  34  65 W18G23    29.96R
* POPLAR APT   PTCLDY    55  28  35 W21       30.00R
* SACO         N/A       56  25  30 W18G26     N/A
$$

MTZ028>042-056>058-062300-
SOUTHCENTRAL AND SOUTHEAST MONTANA
CITY           SKY/WX    TMP DP  RH WIND       PRES   REMARKS
BAKER          CLOUDY    54  21  27 NW20G32   30.02F
BILLINGS       PTCLDY    61  16  17 W23G33    30.12F
LIVINGSTON     PTCLDY    55  18  23 W28G35    30.21F
MILES CITY     SUNNY     61  21  21 NW31G36   30.03F
* BIG TIMBER A PTCLDY    55  18  23 W21G31    30.19F
* FORSYTH APT  PTCLDY    61  21  21 W17G26    30.06S
* LAUREL APT   PTCLDY    61  19  20 W20G32     N/A
* ROUNDUP APT  PTCLDY    59  19  21 W18G25     N/A
* ALZADA       N/A       54  20  26 W18        N/A
* HYSHAM       N/A       56  18  22 W14G24     N/A
* REED POINT   N/A       57  23  27 W25G40     N/A
$$

REGIONAL REPORTS...DAKOTAS
CITY           SKY/WX    TMP DP  RH WIND       PRES   REMARKS
WILLISTON      CLOUDY    48  30  50 W15       29.96S
DICKINSON      PTSUNNY   54  21  27 NW21G30   29.96R
BEACH          SUNNY     54  23  30 NW22G31   30.01S
CROSBY         SUNNY     43  34  71 W17G25    29.91R
TIOGA          PTCLDY    41  32  70 W16       29.94S
WATFORD CITY   PTCLDY    46  28  50 NW13      29.95R
BISMARCK       CLOUDY    46  23  40 S6        29.98F
GRAND FORKS    PTSUNNY   39  18  43 SW10      29.98F WCI  32
FARGO          SUNNY     39  18  43 W8        30.03F WCI  33
BUFFALO SD     SUNNY     57  19  23 NW25G37   29.97S
RAPID CITY     PTCLDY    57  19  23 N20       30.07F
$$

REGIONAL REPORTS...WYOMING/IDAHO/WASHINGTON
CITY           SKY/WX    TMP DP  RH WIND       PRES   REMARKS
GILLETTE       SUNNY     52  21  30 NW17G26   30.14F
SHERIDAN       PTCLDY    52  27  38 NW12      30.13F
CODY           PTCLDY    55  16  21 NW12G20   30.19S
YELLOWSTONE LA SUNNY     39  12  33 W12G20    30.34S WCI  32
SALMON         SUNNY    N/A N/A N/A N3        30.33F
MULLAN PASS    PTCLDY    46  19  34 VRB5      30.34S
SAND POINT     PTCLDY    52  28  40 E5        30.33F
SPOKANE        PTSUNNY   57  27  32 SW7       30.33F
$$

REGIONAL REPORTS...ALBERTA
CITY           SKY/WX    TMP DP  RH WIND       PRES   REMARKS
CALGARY        PTSUNNY   46  21  37 NE10      30.10R
LETHBRIDGE     PTSUNNY   55  21  27 W32G43    30.09F
MEDICINE HAT   PTCLDY    52  23  32 N24G32    30.11R
EDMONTON       PTCLDY    41  27  58 NW21G26   30.10R
WATERTON GATE  N/A       46  21  37 SW18G25    N/A
CARDSTON       N/A       45  27  49 W13G18     N/A
MILK RIVER     N/A       50  27  41 W25G33     N/A
$$

REGIONAL REPORTS...SASKATCHEWAN
CITY           SKY/WX    TMP DP  RH WIND       PRES   REMARKS
SWIFT CURRENT  PTSUNNY   39  30  70 NW21G30   29.99R WCI  29
MOOSE JAW      PTSUNNY   39  32  76 NW22G28   29.92R WCI  29
REGINA         PTSUNNY   37  32  82 NW26G33   29.87R WCI  25
VAL MARIE      N/A       48  28  46 NW24G30    N/A
ASSINIBOIA     N/A       41  28  60 W22G29     N/A
CORONACH       N/A       45  30  56 W18G25     N/A

$$



USA.gov is the U.S. government's official web portal to all federal, state and local government web resources and services.